Wind_Speed
73 74 77 80 85 89 95 100 102 102 110 114 117 122 127 130 124 117 112 108 104 99 95 94 96 96 93 90 85 86 84 83 81 79 78 79 80 82 84 83 84 82 79 79
76 80 82 85 92 94 100 104 108 109 111 119 123 129 133 129 125 117 113 110 104 99 95 96 99 92 86 88 85 85 80 76 76 72 69 69 68 70 72 71 74 75 73 72
78 81 85 92 95 98 102 107 112 115 119 122 126 133 133 130 123 118 113 109 101 97 96 96 92 88 84 78 77 75 72 70 68 65 62 62 58 58 59 61 64 64 66 66
82 85 88 99 98 100 105 110 118 121 125 131 133 133 131 132 125 117 115 111 104 100 100 99 90 85 78 70 68 66 64 61 59 57 54 52 48 50 53 55 55 53 56 61
88 88 93 106 106 109 110 112 121 124 128 134 137 128 132 129 125 123 118 111 103 102 101 96 88 77 68 63 63 61 57 55 53 49 43 39 40 43 45 46 47 48 49 53
96 97 101 110 109 113 115 118 122 127 133 139 136 130 124 121 125 118 115 107 102 101 96 91 82 72 65 59 56 55 48 50 45 36 33 31 34 37 38 39 40 42 42 45
103 105 107 113 115 120 121 125 129 134 139 139 132 133 123 124 121 114 107 100 98 93 89 82 71 65 60 53 52 48 43 43 36 27 27 26 28 29 30 33 35 36 39 41
107 109 117 114 119 122 125 130 134 138 140 133 132 128 125 123 115 110 104 101 98 91 84 79 68 58 51 50 46 42 40 37 30 24 23 22 23 25 28 28 31 35 41 54
112 113 122 121 126 128 131 134 137 139 135 133 128 125 122 116 109 104 101 99 92 84 73 70 61 52 44 43 38 36 34 29 24 21 20 19 21 24 27 30 34 43 54 58
113 118 122 126 129 133 136 137 138 135 133 127 124 123 117 109 105 100 98 91 84 74 66 59 53 47 41 36 32 27 25 21 18 20 17 16 20 25 28 34 46 55 56 60
115 122 123 127 131 134 136 134 131 129 127 124 120 117 110 105 100 95 92 83 77 67 60 54 46 41 36 31 26 19 17 14 13 20 15 17 23 29 34 46 53 57 59 62
122 125 127 129 130 131 127 124 123 120 117 117 113 108 102 99 95 91 83 78 69 61 51 45 41 35 30 25 20 14 11 8 12 17 17 21 28 32 44 52 57 60 62 61
125 127 126 125 122 119 119 117 115 113 111 107 104 99 96 93 89 86 81 74 65 56 46 41 37 31 26 20 14 9 6 7 13 16 21 27 32 39 50 56 60 63 63 62
123 120 117 116 116 116 114 111 109 107 103 100 93 93 90 89 85 82 78 67 60 50 44 40 35 29 22 17 10 3 5 12 15 20 28 33 38 48 55 61 65 66 64 63
115 114 113 114 113 111 108 102 100 98 96 90 90 88 87 83 80 77 69 61 52 43 40 37 31 26 19 13 6 3 10 15 18 27 34 37 42 50 56 60 63 64 67 64
114 114 111 108 107 103 97 93 93 90 87 82 85 84 81 77 74 70 59 53 44 40 38 35 32 25 16 8 3 10 15 15 25 31 38 46 55 58 61 62 62 66 66 62
108 105 101 99 96 92 87 86 85 82 79 79 81 77 73 72 70 63 53 45 38 37 36 36 32 23 14 5 6 14 20 23 28 37 47 53 59 64 61 60 54 66 64 61
98 95 93 90 85 81 80 79 77 75 75 77 77 70 67 66 64 54 47 39 35 34 30 31 26 19 12 6 9 18 26 31 34 44 53 58 59 60 60 61 58 61 61 55
90 87 83 79 75 74 72 73 72 72 73 72 69 63 61 62 57 46 39 32 31 28 26 24 20 15 11 9 14 23 31 36 39 48 54 60 61 62 64 66 65 61 59 54
80 78 75 70 68 67 69 70 68 69 69 66 62 56 56 56 48 39 32 26 22 27 18 14 13 11 10 13 20 28 38 44 49 51 58 61 61 57 59 62 60 58 51 46
73 70 67 66 65 66 66 64 64 66 64 59 56 52 52 51 41 33 25 20 18 9 14 9 7 8 14 21 28 36 40 47 55 64 64 61 59 57 57 56 51 48 46 39
67 63 62 63 64 64 62 60 62 62 58 53 49 47 47 45 35 26 20 13 11 8 3 3 5 11 21 28 29 40 45 49 56 57 59 59 56 55 52 52 50 46 45 45
60 59 59 60 61 60 57 58 57 54 51 49 44 42 44 38 29 21 15 10 8 6 12 10 12 18 26 35 41 47 50 55 58 56 59 57 54 50 47 45 41 39 40 39
56 56 56 56 56 54 56 54 49 46 45 45 41 38 38 32 23 16 12 9 13 16 16 16 25 35 36 43 53 58 59 61 60 60 58 55 53 48 49 44 41 41 34 36
52 53 51 52 52 53 53 47 43 40 41 41 37 36 34 27 18 13 11 16 20 24 24 28 31 42 48 50 54 61 59 60 60 60 50 46 53 40 38 39 36 38 36 34
51 50 49 50 50 50 45 41 37 35 38 37 34 33 31 24 16 12 13 22 27 31 32 37 37 36 44 45 50 62 53 52 51 46 42 43 43 40 36 36 30 31 32 32
49 47 48 47 46 43 39 35 34 34 36 32 31 29 28 22 15 13 16 25 34 40 38 42 41 38 38 41 43 44 43 44 43 44 41 43 44 38 33 29 27 29 28 30
Wind_Direction
303 305 306 307 307 309 312 313 313 314 316 316 317 318 318 318 317 318 316 316 315 314 313 310 308 306 303 301 298 294 290 286 281 277 273 270 267 264 261 258 257 255 251 251
301 303 305 306 307 310 311 311 312 314 315 317 317 319 320 319 320 320 320 320 319 316 314 312 310 307 305 303 299 294 291 287 283 280 276 270 267 264 262 258 254 250 248 245
300 302 304 305 307 309 309 311 312 314 315 317 318 320 320 319 321 320 320 321 319 316 314 313 310 308 306 301 295 291 289 284 282 280 277 273 270 265 262 257 251 246 242 238
297 299 302 303 305 307 308 311 313 314 317 317 318 321 319 320 322 321 323 323 320 317 318 315 312 309 307 302 294 290 287 283 281 280 277 276 269 262 256 252 248 242 237 231
298 300 303 304 307 308 310 313 313 315 315 316 318 320 320 322 323 325 324 321 319 319 317 314 313 312 309 302 296 293 288 285 281 281 277 270 262 255 250 244 240 235 229 223
300 302 305 304 307 308 310 312 314 314 314 316 319 318 319 323 324 323 322 320 320 319 316 314 315 312 307 302 296 290 291 283 280 276 268 258 251 246 240 236 230 226 220 211
301 303 305 305 307 309 311 312 313 314 315 317 318 318 323 325 324 322 321 320 319 318 317 314 313 310 306 301 293 294 288 282 276 264 255 248 242 233 228 222 217 212 206 193
301 304 303 305 306 309 311 312 313 314 314 317 319 321 325 323 323 323 323 322 321 321 319 315 316 313 309 302 300 295 288 282 270 253 246 236 226 218 213 206 203 195 187 184
301 304 303 307 307 309 310 311 312 313 316 319 320 323 323 323 324 323 322 321 322 322 320 317 318 314 309 302 299 297 291 280 264 251 234 221 207 202 192 187 187 176 176 180
302 301 304 304 306 308 309 310 312 314 316 319 321 322 323 324 324 323 322 323 325 323 320 316 316 316 313 309 306 304 292 282 267 245 222 208 190 187 176 174 172 176 175 177
300 298 301 302 304 306 308 310 313 315 318 319 321 322 323 324 323 323 323 326 326 325 323 323 322 319 315 310 305 299 289 280 260 231 206 186 182 175 166 168 173 172 172 176
297 298 301 302 304 306 309 311 313 316 316 318 321 322 323 323 323 324 327 330 328 328 331 332 328 325 321 313 306 297 287 268 239 212 186 174 173 166 164 172 169 171 171 171
297 299 300 303 305 308 310 312 314 315 317 319 320 320 322 323 325 326 332 333 332 333 337 336 334 331 326 320 315 302 259 215 206 190 170 168 165 160 170 168 168 168 168 166
296 300 302 304 306 308 310 312 314 315 317 319 318 321 324 325 327 330 334 333 333 337 340 339 337 335 335 333 332 289 188 178 184 167 160 163 161 166 170 168 170 167 163 158
299 300 301 303 305 308 310 313 314 314 317 318 319 323 325 326 327 333 332 332 333 339 341 341 343 344 345 349 359 128 148 173 166 161 159 158 160 165 165 166 166 164 157 158
297 299 301 302 305 308 311 312 312 315 316 317 320 324 325 325 328 332 332 331 335 341 345 345 346 346 355 6 88 142 141 158 159 158 153 155 158 159 163 164 166 159 153 157
296 298 299 302 305 308 309 310 312 313 314 317 320 324 325 325 330 331 332 334 340 343 345 342 344 352 6 25 152 146 136 146 157 153 156 161 160 157 157 156 158 152 156 155
295 297 299 302 305 306 307 310 310 312 315 318 320 323 325 326 329 332 333 335 340 343 340 341 348 2 24 70 133 140 139 143 152 155 160 158 156 155 151 148 152 156 152 154
294 295 298 301 303 304 306 307 308 311 314 316 319 324 326 326 328 332 332 337 339 334 339 342 353 17 42 89 125 136 139 142 148 157 157 151 149 148 149 150 154 155 157 156
292 294 297 299 301 303 306 306 308 311 314 316 318 324 326 325 328 331 329 334 332 329 331 344 359 32 79 109 130 137 135 141 147 151 149 149 148 148 150 153 157 157 157 162
290 293 296 298 300 302 303 306 308 310 314 316 319 325 324 325 329 330 326 330 328 317 326 331 9 81 114 127 132 133 138 145 146 146 146 143 145 149 152 154 159 168 172 171
290 293 294 297 299 302 303 306 308 310 312 313 319 324 321 324 327 326 322 314 306 308 335 88 70 110 129 141 142 141 140 141 148 151 145 150 151 158 158 159 161 169 178 182
289 291 292 296 299 302 303 305 307 309 311 313 319 324 318 324 325 318 309 288 254 213 152 110 99 127 138 147 149 147 148 148 145 149 152 154 157 161 162 160 162 176 178 177
286 289 293 296 300 302 304 305 308 309 310 312 318 322 317 323 320 305 287 243 199 176 157 131 122 128 136 145 147 146 152 154 150 150 155 154 160 168 165 163 167 174 170 178
285 289 294 297 299 302 303 305 306 307 309 312 318 318 316 320 314 286 258 216 189 168 150 137 134 145 145 146 148 153 155 154 153 156 150 162 156 159 166 173 175 177 184 187
284 289 293 296 299 300 301 302 303 306 309 310 316 312 313 316 306 264 239 208 192 174 157 149 142 146 159 158 159 163 161 159 158 160 165 172 173 178 176 174 181 186 186 190
283 288 291 295 296 298 299 300 303 306 307 308 310 307 309 311 298 251 230 205 190 175 167 159 154 151 157 169 173 173 175 174 167 175 176 182 184 184 186 186 184 191 192 194
Height
10731 10727 10718 10708 10697 10687 10674 10658 10650 10647 10619 10606 10594 10579 10560 10537 10519 10499 10476 10454 10430 10411 10393 10376 10355 10339 10324 10310 10302 10290 10284 10277 10270 10268 10268 10267 10269 10271 10274 10284 10291 10298 10310 10321
10719 10709 10701 10691 10676 10670 10656 10641 10625 10618 10608 10581 10564 10545 10525 10499 10480 10461 10441 10421 10402 10382 10363 10344 10325 10312 10301 10282 10270 10255 10252 10247 10238 10237 10239 10237 10241 10242 10246 10254 10261 10271 10284 10295
10707 10696 10685 10670 10661 10653 10638 10621 10602 10592 10575 10561 10546 10522 10490 10469 10455 10431 10411 10389 10371 10352 10334 10320 10302 10285 10273 10261 10244 10234 10226 10217 10213 10213 10211 10211 10216 10219 10221 10226 10233 10245 10258 10273
10688 10679 10670 10644 10643 10635 10621 10603 10579 10563 10546 10525 10513 10504 10465 10439 10420 10402 10377 10356 10339 10320 10305 10285 10272 10257 10245 10231 10217 10211 10202 10196 10192 10190 10190 10191 10193 10195 10199 10205 10214 10226 10238 10252
10662 10662 10651 10621 10616 10604 10595 10591 10559 10542 10526 10506 10490 10478 10445 10417 10390 10366 10346 10330 10312 10294 10277 10258 10244 10233 10220 10207 10195 10188 10181 10176 10172 10172 10172 10172 10172 10175 10180 10188 10197 10208 10221 10235
10638 10634 10624 10601 10596 10582 10574 10563 10543 10524 10503 10482 10464 10447 10432 10403 10375 10353 10330 10306 10288 10272 10252 10231 10221 10209 10198 10187 10176 10168 10166 10158 10155 10156 10156 10156 10157 10161 10167 10175 10186 10196 10209 10224
10613 10606 10604 10581 10567 10551 10544 10529 10513 10494 10473 10458 10438 10409 10388 10365 10348 10328 10307 10289 10270 10251 10230 10212 10201 10189 10178 10168 10157 10153 10148 10144 10142 10143 10143 10143 10146 10151 10157 10166 10176 10188 10201 10219
10597 10587 10566 10567 10548 10534 10520 10503 10484 10468 10448 10433 10412 10387 10365 10346 10321 10297 10278 10263 10244 10227 10210 10189 10180 10172 10163 10151 10145 10140 10135 10133 10131 10132 10131 10134 10137 10143 10150 10160 10171 10183 10197 10211
10576 10566 10535 10533 10514 10504 10492 10478 10460 10442 10421 10402 10382 10363 10346 10325 10304 10283 10260 10242 10224 10208 10194 10173 10164 10155 10148 10137 10132 10128 10126 10123 10123 10124 10123 10126 10131 10137 10145 10155 10169 10181 10193 10207
10560 10537 10522 10506 10492 10480 10466 10453 10433 10412 10396 10377 10359 10339 10325 10303 10282 10264 10244 10226 10209 10192 10176 10162 10149 10140 10133 10127 10123 10120 10117 10116 10117 10118 10117 10122 10128 10134 10143 10156 10167 10178 10193 10208
10538 10515 10510 10491 10478 10460 10445 10427 10409 10390 10370 10354 10339 10321 10303 10284 10265 10249 10229 10212 10192 10176 10162 10150 10138 10129 10122 10117 10114 10111 10109 10110 10110 10112 10113 10120 10126 10134 10144 10156 10165 10179 10193 10209
10507 10495 10486 10470 10457 10441 10426 10409 10391 10376 10358 10336 10319 10305 10288 10268 10250 10232 10216 10198 10180 10164 10151 10139 10130 10122 10115 10110 10107 10104 10104 10103 10106 10109 10113 10119 10127 10136 10147 10154 10169 10182 10196 10212
10480 10470 10458 10446 10433 10419 10403 10389 10373 10357 10338 10325 10306 10290 10273 10255 10237 10216 10200 10184 10169 10156 10143 10133 10124 10117 10111 10105 10102 10100 10099 10101 10104 10108 10113 10120 10128 10139 10148 10161 10173 10187 10201 10217
10454 10446 10434 10420 10408 10397 10383 10371 10352 10335 10321 10308 10293 10277 10259 10240 10222 10205 10190 10177 10163 10150 10139 10130 10122 10114 10108 10103 10100 10098 10099 10101 10103 10108 10114 10122 10132 10143 10153 10165 10177 10191 10207 10224
10427 10417 10411 10399 10388 10376 10364 10351 10335 10322 10308 10293 10276 10264 10247 10229 10214 10200 10186 10172 10160 10148 10138 10130 10122 10114 10109 10104 10101 10099 10100 10101 10106 10111 10117 10127 10139 10149 10161 10173 10185 10200 10214 10230
10401 10394 10386 10375 10366 10356 10345 10333 10319 10306 10294 10280 10266 10254 10238 10221 10207 10195 10182 10170 10158 10146 10137 10130 10123 10116 10112 10107 10103 10101 10103 10108 10112 10117 10125 10134 10145 10156 10168 10179 10194 10208 10223 10239
10380 10372 10364 10355 10348 10338 10327 10315 10305 10294 10283 10271 10257 10245 10230 10213 10200 10190 10178 10167 10156 10147 10138 10132 10125 10120 10116 10112 10108 10108 10109 10113 10119 10125 10133 10141 10152 10163 10176 10191 10206 10219 10232 10244
10356 10350 10343 10338 10331 10321 10309 10300 10291 10282 10272 10260 10247 10237 10222 10207 10197 10185 10174 10165 10154 10148 10140 10134 10128 10125 10121 10118 10116 10116 10117 10119 10128 10135 10142 10152 10163 10175 10189 10203 10217 10227 10238 10250
10336 10330 10326 10321 10314 10305 10297 10287 10279 10270 10262 10251 10238 10228 10214 10201 10192 10182 10173 10165 10156 10149 10144 10138 10134 10131 10128 10125 10125 10124 10126 10130 10139 10147 10155 10166 10177 10189 10201 10212 10223 10234 10245 10256
10317 10312 10309 10304 10298 10291 10282 10273 10265 10257 10250 10240 10229 10221 10208 10197 10188 10179 10172 10165 10158 10153 10149 10143 10140 10138 10135 10133 10135 10134 10137 10141 10151 10159 10169 10179 10191 10202 10213 10222 10232 10241 10251 10262
10298 10294 10290 10285 10280 10275 10267 10260 10252 10245 10238 10231 10221 10212 10200 10191 10183 10177 10171 10165 10161 10158 10152 10149 10146 10146 10144 10143 10144 10148 10155 10160 10166 10173 10182 10190 10201 10212 10222 10231 10240 10248 10257 10267
10280 10277 10274 10268 10263 10259 10253 10247 10240 10233 10226 10219 10213 10204 10195 10186 10179 10174 10170 10166 10164 10162 10159 10155 10154 10154 10154 10152 10156 10159 10167 10175 10182 10188 10194 10204 10213 10222 10230 10239 10249 10258 10265 10270
10263 10261 10257 10253 10248 10244 10238 10234 10228 10221 10214 10207 10204 10197 10188 10181 10174 10171 10168 10167 10166 10164 10165 10162 10161 10161 10161 10163 10167 10172 10180 10186 10193 10201 10209 10217 10225 10232 10240 10247 10256 10262 10270 10278
10246 10245 10243 10238 10234 10229 10224 10221 10216 10210 10204 10198 10193 10189 10182 10176 10170 10167 10167 10167 10168 10168 10168 10168 10170 10171 10170 10173 10178 10184 10192 10197 10202 10211 10217 10224 10232 10240 10246 10255 10261 10267 10274 10282
10230 10230 10228 10224 10220 10215 10210 10208 10204 10200 10194 10188 10185 10180 10175 10170 10167 10164 10164 10167 10168 10169 10171 10173 10177 10181 10184 10187 10191 10196 10201 10206 10211 10217 10225 10231 10238 10244 10252 10258 10264 10271 10277 10283
10215 10214 10212 10210 10206 10202 10198 10196 10193 10189 10185 10180 10177 10173 10169 10164 10162 10161 10162 10165 10167 10169 10172 10176 10180 10185 10189 10193 10198 10203 10207 10211 10217 10224 10230 10237 10242 10248 10254 10261 10266 10271 10276 10282
10201 10200 10199 10196 10193 10190 10187 10184 10182 10179 10175 10172 10169 10166 10161 10158 10156 10156 10158 10162 10165 10168 10172 10175 10181 10186 10191 10195 10199 10205 10210 10216 10222 10228 10232 10238 10244 10249 10255 10261 10267 10272 10277 10282